STARLINK-35414

Last updated on Mon Oct 20 2025 00:02:07 GMT+0000 (Coordinated Universal Time)

1 65798U 25218H 25292.26501342 .00049025 00000+0 89671-3 0 9999 2 65798 97.6023 152.8378 0001717 90.6360 269.5087 15.49213830 3644
UTC large
Height (km)
Speed (km/s)
/
Latitude / Longitude
Inclination (degrees)
Orbital Period (minutes)
Azimuth
Elevation
Range (km)
Doppler Factor

Next 0 passes for location: London (51.5072 / 0.1276)

Sorry there are no passes over London.